Year,Month,Day,Hour,Minute,Value (Times are PST for temperature in C)
2018,01,12,00,00,6.00
2018,01,12,00,01,6.00
2018,01,12,00,02,6.00
2018,01,12,00,03,6.00
2018,01,12,00,04,6.00
2018,01,12,00,05,6.10
2018,01,12,00,06,6.10
2018,01,12,00,07,6.10
2018,01,12,00,08,6.10
2018,01,12,00,09,6.10
2018,01,12,00,10,6.10
2018,01,12,00,11,6.10
2018,01,12,00,12,6.10
2018,01,12,00,13,6.10
2018,01,12,00,14,6.10
2018,01,12,00,15,6.10
2018,01,12,00,16,6.10
2018,01,12,00,17,6.10
2018,01,12,00,18,6.10
2018,01,12,00,19,6.10
2018,01,12,00,20,6.10
2018,01,12,00,21,6.10
2018,01,12,00,22,6.10
2018,01,12,00,23,6.10
2018,01,12,00,24,6.10
2018,01,12,00,25,6.10
2018,01,12,00,26,6.10
2018,01,12,00,27,6.10
2018,01,12,00,28,6.10
2018,01,12,00,29,6.10
2018,01,12,00,30,6.10
2018,01,12,00,31,6.10
2018,01,12,00,32,6.10
2018,01,12,00,33,6.10
2018,01,12,00,34,6.20
2018,01,12,00,35,6.20
2018,01,12,00,36,6.20
2018,01,12,00,37,6.20
2018,01,12,00,38,6.20
2018,01,12,00,39,6.20
2018,01,12,00,40,6.20
2018,01,12,00,41,6.20
2018,01,12,00,42,6.20
2018,01,12,00,43,6.20
2018,01,12,00,44,6.20
2018,01,12,00,45,6.20
2018,01,12,00,46,6.20
2018,01,12,00,47,6.20
2018,01,12,00,48,6.20
2018,01,12,00,49,6.20
2018,01,12,00,50,6.20
2018,01,12,00,51,6.20
2018,01,12,00,52,6.20
2018,01,12,00,53,6.20
2018,01,12,00,54,6.20
2018,01,12,00,55,6.20
2018,01,12,00,56,6.20
2018,01,12,00,57,6.20
2018,01,12,00,58,6.20
2018,01,12,00,59,6.20
2018,01,12,01,00,6.20
2018,01,12,01,01,6.20
2018,01,12,01,02,6.20
2018,01,12,01,03,6.20
2018,01,12,01,04,6.20
2018,01,12,01,05,6.20
2018,01,12,01,06,6.20
2018,01,12,01,07,6.20
2018,01,12,01,08,6.20
2018,01,12,01,09,6.20
2018,01,12,01,10,6.20
2018,01,12,01,11,6.20
2018,01,12,01,12,6.20
2018,01,12,01,13,6.20
2018,01,12,01,14,6.20
2018,01,12,01,15,6.20
2018,01,12,01,16,6.20
2018,01,12,01,17,6.20
2018,01,12,01,18,6.20
2018,01,12,01,19,6.20
2018,01,12,01,20,6.20
2018,01,12,01,21,6.20
2018,01,12,01,22,6.20
2018,01,12,01,23,6.20
2018,01,12,01,24,6.20
2018,01,12,01,25,6.20
2018,01,12,01,26,6.20
2018,01,12,01,27,6.20
2018,01,12,01,28,6.20
2018,01,12,01,29,6.20
2018,01,12,01,30,6.20
2018,01,12,01,31,6.20
2018,01,12,01,32,6.20
2018,01,12,01,33,6.20
2018,01,12,01,34,6.30
2018,01,12,01,35,6.20
2018,01,12,01,36,6.30
2018,01,12,01,37,6.30
2018,01,12,01,38,6.30
2018,01,12,01,39,6.30
2018,01,12,01,40,6.30
2018,01,12,01,41,6.30
2018,01,12,01,42,6.30
2018,01,12,01,43,6.20
2018,01,12,01,44,6.20
2018,01,12,01,45,6.20
2018,01,12,01,46,6.20
2018,01,12,01,47,6.20
2018,01,12,01,48,6.20
2018,01,12,01,49,6.20
2018,01,12,01,50,6.20
2018,01,12,01,51,6.20
2018,01,12,01,52,6.20
2018,01,12,01,53,6.20
2018,01,12,01,54,6.20
2018,01,12,01,55,6.20
2018,01,12,01,56,6.20
2018,01,12,01,57,6.20
2018,01,12,01,58,6.10
2018,01,12,01,59,6.10
2018,01,12,02,00,6.10
2018,01,12,02,01,6.10
2018,01,12,02,02,6.10
2018,01,12,02,03,6.10
2018,01,12,02,04,6.10
2018,01,12,02,05,6.00
2018,01,12,02,06,6.00
2018,01,12,02,07,6.00
2018,01,12,02,08,6.00
2018,01,12,02,09,6.00
2018,01,12,02,10,6.00
2018,01,12,02,11,5.90
2018,01,12,02,12,5.90
2018,01,12,02,13,5.90
2018,01,12,02,14,5.90
2018,01,12,02,15,5.90
2018,01,12,02,16,5.90
2018,01,12,02,17,5.90
2018,01,12,02,18,5.90
2018,01,12,02,19,5.90
2018,01,12,02,20,5.80
2018,01,12,02,21,5.80
2018,01,12,02,22,5.80
2018,01,12,02,23,5.80
2018,01,12,02,24,5.80
2018,01,12,02,25,5.80
2018,01,12,02,26,5.80
2018,01,12,02,27,5.80
2018,01,12,02,28,5.80
2018,01,12,02,29,5.80
2018,01,12,02,30,5.80
2018,01,12,02,31,5.80
2018,01,12,02,32,5.80
2018,01,12,02,33,5.80
2018,01,12,02,34,5.70
2018,01,12,02,35,5.70
2018,01,12,02,36,5.70
2018,01,12,02,37,5.70
2018,01,12,02,38,5.70
2018,01,12,02,39,5.70
2018,01,12,02,40,5.70
2018,01,12,02,41,5.70
2018,01,12,02,42,5.70
2018,01,12,02,43,5.70
2018,01,12,02,44,5.70
2018,01,12,02,45,5.80
2018,01,12,02,46,5.80
2018,01,12,02,47,5.80
2018,01,12,02,48,5.80
2018,01,12,02,49,5.80
2018,01,12,02,50,5.80
2018,01,12,02,51,5.80
2018,01,12,02,52,5.80
2018,01,12,02,53,5.80
2018,01,12,02,54,5.80
2018,01,12,02,55,5.80
2018,01,12,02,56,5.80
2018,01,12,02,57,5.80
2018,01,12,02,58,5.80
2018,01,12,02,59,5.80
2018,01,12,03,00,5.80
2018,01,12,03,01,5.80
2018,01,12,03,02,5.80
2018,01,12,03,03,5.80
2018,01,12,03,04,5.80
2018,01,12,03,05,5.80
2018,01,12,03,06,5.80
2018,01,12,03,07,5.80
2018,01,12,03,08,5.80
2018,01,12,03,09,5.80
2018,01,12,03,10,5.80
2018,01,12,03,11,5.80
2018,01,12,03,12,5.80
2018,01,12,03,13,5.80
2018,01,12,03,14,5.80
2018,01,12,03,15,5.80
2018,01,12,03,16,5.80
2018,01,12,03,17,5.80
2018,01,12,03,18,5.80
2018,01,12,03,19,5.80
2018,01,12,03,20,5.80
2018,01,12,03,21,5.80
2018,01,12,03,22,5.90
2018,01,12,03,23,5.90
2018,01,12,03,24,5.90
2018,01,12,03,25,5.90
2018,01,12,03,26,5.90
2018,01,12,03,27,5.90
2018,01,12,03,28,5.90
2018,01,12,03,29,5.90
2018,01,12,03,30,5.90
2018,01,12,03,31,5.90
2018,01,12,03,32,5.90
2018,01,12,03,33,5.90
2018,01,12,03,34,5.90
2018,01,12,03,35,5.90
2018,01,12,03,36,6.00
2018,01,12,03,37,6.00
2018,01,12,03,38,6.00
2018,01,12,03,39,6.00
2018,01,12,03,40,6.00
2018,01,12,03,41,6.00
2018,01,12,03,42,6.00
2018,01,12,03,43,6.00
2018,01,12,03,44,6.00
2018,01,12,03,45,6.00
2018,01,12,03,46,6.00
2018,01,12,03,47,6.10
2018,01,12,03,48,6.10
2018,01,12,03,49,6.10
2018,01,12,03,50,6.10
2018,01,12,03,51,6.10
2018,01,12,03,52,6.10
2018,01,12,03,53,6.10
2018,01,12,03,54,6.10
2018,01,12,03,55,6.10
2018,01,12,03,56,6.10
2018,01,12,03,57,6.10
2018,01,12,03,58,6.10
2018,01,12,03,59,6.10
2018,01,12,04,00,6.10
2018,01,12,04,01,6.10
2018,01,12,04,02,6.20
2018,01,12,04,03,6.20
2018,01,12,04,04,6.20
2018,01,12,04,05,6.20
2018,01,12,04,06,6.20
2018,01,12,04,07,6.20
2018,01,12,04,08,6.20
2018,01,12,04,09,6.20
2018,01,12,04,10,6.20
2018,01,12,04,11,6.20
2018,01,12,04,12,6.20
2018,01,12,04,13,6.20
2018,01,12,04,14,6.20
2018,01,12,04,15,6.20
2018,01,12,04,16,6.30
2018,01,12,04,17,6.30
2018,01,12,04,18,6.30
2018,01,12,04,19,6.30
2018,01,12,04,20,6.30
2018,01,12,04,21,6.30
2018,01,12,04,22,6.30
2018,01,12,04,23,6.30
2018,01,12,04,24,6.30
2018,01,12,04,25,6.30
2018,01,12,04,26,6.30
2018,01,12,04,27,6.30
2018,01,12,04,28,6.30
2018,01,12,04,29,6.30
2018,01,12,04,30,6.30
2018,01,12,04,31,6.30
2018,01,12,04,32,6.30
2018,01,12,04,33,6.30
2018,01,12,04,34,6.30
2018,01,12,04,35,6.30
2018,01,12,04,36,6.30
2018,01,12,04,37,6.30
2018,01,12,04,38,6.30
2018,01,12,04,39,6.30
2018,01,12,04,40,6.30
2018,01,12,04,41,6.30
2018,01,12,04,42,6.30
2018,01,12,04,43,6.30
2018,01,12,04,44,6.30
2018,01,12,04,45,6.30
2018,01,12,04,46,6.30
2018,01,12,04,47,6.30
2018,01,12,09,35,5.80
2018,01,12,09,36,5.80
2018,01,12,09,37,5.80
2018,01,12,09,38,5.80
2018,01,12,09,39,5.80
2018,01,12,09,40,5.80
2018,01,12,09,41,5.80
2018,01,12,09,42,5.80
2018,01,12,09,43,5.80
2018,01,12,09,44,5.90
2018,01,12,09,45,5.90
2018,01,12,09,46,5.90
2018,01,12,09,47,5.90
2018,01,12,09,48,5.90
2018,01,12,09,49,5.90
2018,01,12,09,50,5.90
2018,01,12,09,51,5.90
2018,01,12,09,52,6.00
2018,01,12,09,53,6.00
2018,01,12,09,54,6.00
2018,01,12,09,55,6.00
2018,01,12,09,56,6.10
2018,01,12,09,57,6.10
2018,01,12,09,58,6.10
2018,01,12,09,59,6.10
2018,01,12,10,00,6.10
2018,01,12,10,01,6.10
2018,01,12,10,02,6.10
2018,01,12,10,03,6.20
2018,01,12,10,04,6.20
2018,01,12,10,05,6.20
2018,01,12,10,06,6.20
2018,01,12,10,07,6.20
2018,01,12,10,08,6.20
2018,01,12,10,09,6.20
2018,01,12,10,10,6.30
2018,01,12,10,11,6.30
2018,01,12,10,12,6.30
2018,01,12,10,13,6.30
2018,01,12,10,14,6.30
2018,01,12,10,15,6.30
2018,01,12,10,16,6.30
2018,01,12,10,17,6.30
2018,01,12,10,18,6.30
2018,01,12,10,19,6.30
2018,01,12,10,20,6.30
2018,01,12,10,21,6.30
2018,01,12,10,22,6.30
2018,01,12,10,23,6.30
2018,01,12,10,24,6.30
2018,01,12,10,25,6.30
2018,01,12,10,26,6.30
2018,01,12,10,27,6.30
2018,01,12,10,28,6.30
2018,01,12,10,29,6.30
2018,01,12,10,30,6.30
2018,01,12,10,31,6.30
2018,01,12,10,32,6.30
2018,01,12,10,33,6.30
2018,01,12,10,34,6.30
2018,01,12,10,35,6.30
2018,01,12,10,36,6.30
2018,01,12,10,37,6.30
2018,01,12,10,38,6.30
2018,01,12,10,39,6.30
2018,01,12,10,40,6.30
2018,01,12,10,41,6.30
2018,01,12,10,42,6.30
2018,01,12,10,43,6.30
2018,01,12,10,44,6.30
2018,01,12,10,45,6.30
2018,01,12,10,46,6.30
2018,01,12,10,47,6.30
2018,01,12,10,48,6.30
2018,01,12,10,49,6.30
2018,01,12,10,50,6.30
2018,01,12,10,51,6.30
2018,01,12,10,52,6.30
2018,01,12,10,53,6.30
2018,01,12,10,54,6.30
2018,01,12,10,55,6.30
2018,01,12,10,56,6.30
2018,01,12,10,57,6.30
2018,01,12,10,58,6.40
2018,01,12,10,59,6.40
2018,01,12,11,00,6.40
2018,01,12,11,01,6.40
2018,01,12,11,02,6.40
2018,01,12,11,03,6.40
2018,01,12,11,04,6.40
2018,01,12,11,05,6.40
2018,01,12,11,06,6.40
2018,01,12,11,07,6.40
2018,01,12,11,08,6.40
2018,01,12,11,09,6.40
2018,01,12,11,10,6.40
2018,01,12,11,11,6.40
2018,01,12,11,12,6.30
2018,01,12,11,13,6.30
2018,01,12,11,14,6.30
2018,01,12,11,15,6.30
2018,01,12,11,16,6.30
2018,01,12,11,17,6.40
2018,01,12,11,18,6.40
2018,01,12,11,19,6.40
2018,01,12,11,20,6.40
2018,01,12,11,21,6.40
2018,01,12,11,22,6.50
2018,01,12,11,23,6.50
2018,01,12,11,24,6.60
2018,01,12,11,25,6.60
2018,01,12,11,26,6.60
2018,01,12,11,27,6.60
2018,01,12,11,28,6.60
2018,01,12,11,29,6.70
2018,01,12,11,30,6.70
2018,01,12,11,31,6.70
2018,01,12,11,32,6.70
2018,01,12,11,33,6.70
2018,01,12,11,34,6.70
2018,01,12,11,35,6.70
2018,01,12,11,36,6.70
2018,01,12,11,37,6.70
2018,01,12,11,38,6.70
2018,01,12,11,39,6.70
2018,01,12,11,40,6.70
2018,01,12,11,41,6.70
2018,01,12,11,42,6.70
2018,01,12,11,43,6.70
2018,01,12,11,44,6.70
2018,01,12,11,45,6.70
2018,01,12,11,46,6.70
2018,01,12,11,47,6.70
2018,01,12,11,48,6.80
2018,01,12,11,49,6.80
2018,01,12,11,50,6.80
2018,01,12,11,51,6.80
2018,01,12,11,52,6.80
2018,01,12,11,53,6.70
2018,01,12,11,54,6.80
2018,01,12,11,55,6.80
2018,01,12,11,56,6.80
2018,01,12,11,57,6.80
2018,01,12,11,58,6.80
2018,01,12,11,59,6.80
2018,01,12,12,00,6.90
2018,01,12,12,01,6.90
2018,01,12,12,02,6.90
2018,01,12,12,03,6.90
2018,01,12,12,04,6.90
2018,01,12,12,05,7.00
2018,01,12,12,06,6.90
2018,01,12,12,07,6.90
2018,01,12,12,08,6.90
2018,01,12,12,09,6.90
2018,01,12,12,10,6.90
2018,01,12,12,11,6.90
2018,01,12,12,12,7.00
2018,01,12,12,13,7.00
2018,01,12,12,14,7.00
2018,01,12,12,15,7.00
2018,01,12,12,16,7.00
2018,01,12,12,17,7.00
2018,01,12,12,18,7.00
2018,01,12,12,19,6.90
2018,01,12,12,20,6.90
2018,01,12,12,21,6.90
2018,01,12,12,22,7.00
2018,01,12,12,23,7.00
2018,01,12,12,24,7.00
2018,01,12,12,25,7.00
2018,01,12,12,26,7.00
2018,01,12,12,27,7.00
2018,01,12,12,28,7.00
2018,01,12,12,29,7.00
2018,01,12,12,30,7.00
2018,01,12,12,31,7.10
2018,01,12,12,32,7.10
2018,01,12,12,33,7.10
2018,01,12,12,34,7.10
2018,01,12,12,35,7.10
2018,01,12,12,36,7.10
2018,01,12,12,37,7.10
2018,01,12,12,38,7.20
2018,01,12,12,39,7.20
2018,01,12,12,40,7.20
2018,01,12,12,41,7.20
2018,01,12,12,42,7.20
2018,01,12,12,43,7.20
2018,01,12,12,44,7.20
2018,01,12,12,45,7.20
2018,01,12,12,46,7.20
2018,01,12,12,47,7.20
2018,01,12,12,48,7.20
2018,01,12,12,49,7.20
2018,01,12,12,50,7.30
2018,01,12,12,51,7.30
2018,01,12,12,52,7.30
2018,01,12,12,53,7.30
2018,01,12,12,54,7.30
2018,01,12,12,55,7.30
2018,01,12,12,56,7.30
2018,01,12,12,57,7.30
2018,01,12,12,58,7.30
2018,01,12,12,59,7.30
2018,01,12,13,00,7.30
2018,01,12,13,01,7.30
2018,01,12,13,02,7.30
2018,01,12,13,03,7.30
2018,01,12,13,04,7.20
2018,01,12,13,05,7.20
2018,01,12,13,06,7.20
2018,01,12,13,07,7.20
2018,01,12,13,08,7.20
2018,01,12,13,09,7.20
2018,01,12,13,10,7.20
2018,01,12,13,11,7.20
2018,01,12,13,12,7.20
2018,01,12,13,13,7.20
2018,01,12,13,14,7.20
2018,01,12,13,15,7.20
2018,01,12,13,16,7.20
2018,01,12,13,17,7.20
2018,01,12,13,18,7.20
2018,01,12,13,19,7.20
2018,01,12,13,20,7.20
2018,01,12,13,21,7.20
2018,01,12,13,22,7.20
2018,01,12,13,23,7.10
2018,01,12,13,24,7.10
2018,01,12,13,25,7.20
2018,01,12,13,26,7.20
2018,01,12,13,27,7.20
2018,01,12,13,28,7.20
2018,01,12,13,29,7.10
2018,01,12,13,30,7.10
2018,01,12,13,31,7.10
2018,01,12,13,32,7.10
2018,01,12,13,33,7.10
2018,01,12,13,34,7.10
2018,01,12,13,35,7.10
2018,01,12,13,36,7.10
2018,01,12,13,37,7.10
2018,01,12,13,38,7.10
2018,01,12,13,39,7.10
2018,01,12,13,40,7.10
2018,01,12,13,41,7.10
2018,01,12,13,42,7.10
2018,01,12,13,43,7.10
2018,01,12,13,44,7.10
2018,01,12,13,45,7.10
2018,01,12,13,46,7.10
2018,01,12,13,47,7.10
2018,01,12,13,48,7.10
2018,01,12,13,49,7.10
2018,01,12,13,50,7.10
2018,01,12,13,51,7.10
2018,01,12,13,52,7.10
2018,01,12,13,53,7.10
2018,01,12,13,54,7.10
2018,01,12,13,55,7.10
2018,01,12,13,56,7.10
2018,01,12,13,57,7.00
2018,01,12,13,58,7.00
2018,01,12,13,59,7.00
2018,01,12,14,00,7.00
2018,01,12,14,01,7.00
2018,01,12,14,02,6.90
2018,01,12,14,03,6.90
2018,01,12,14,04,6.90
2018,01,12,14,05,6.90
2018,01,12,14,06,6.90
2018,01,12,14,07,6.90
2018,01,12,14,08,6.90
2018,01,12,14,09,6.90
2018,01,12,14,10,6.90
2018,01,12,14,11,6.90
2018,01,12,14,12,6.90
2018,01,12,14,13,6.90
2018,01,12,14,14,6.90
2018,01,12,14,15,6.90
2018,01,12,14,16,6.90
2018,01,12,14,17,6.90
2018,01,12,14,18,6.80
2018,01,12,14,19,6.80
2018,01,12,14,20,6.80
2018,01,12,14,21,6.80
2018,01,12,14,22,6.80
2018,01,12,14,23,6.80
2018,01,12,14,24,6.80
2018,01,12,14,25,6.80
2018,01,12,14,26,6.80
2018,01,12,14,27,6.80
2018,01,12,14,28,6.80
2018,01,12,14,29,6.80
2018,01,12,14,30,6.80
2018,01,12,14,31,6.80
2018,01,12,14,32,6.80
2018,01,12,14,33,6.80
2018,01,12,14,34,6.80
2018,01,12,14,35,6.80
2018,01,12,14,36,6.80
2018,01,12,14,37,6.80
2018,01,12,14,38,6.80
2018,01,12,14,39,6.80
2018,01,12,14,40,6.80
2018,01,12,14,41,6.80
2018,01,12,14,42,6.80
2018,01,12,14,43,6.80
2018,01,12,14,44,6.80
2018,01,12,14,45,6.80
2018,01,12,14,46,6.80
2018,01,12,14,47,6.80
2018,01,12,14,48,6.80
2018,01,12,14,49,6.80
2018,01,12,14,50,6.80
2018,01,12,14,51,6.80
2018,01,12,14,52,6.80
2018,01,12,14,53,6.80
2018,01,12,14,54,6.80
2018,01,12,14,55,6.80
2018,01,12,14,56,6.80
2018,01,12,14,57,6.80
2018,01,12,14,58,6.80
2018,01,12,14,59,6.80
2018,01,12,15,00,6.80
2018,01,12,15,01,6.80
2018,01,12,15,02,6.80
2018,01,12,15,03,6.80
2018,01,12,15,04,6.80
2018,01,12,15,05,6.90
2018,01,12,15,06,6.90
2018,01,12,15,07,6.90
2018,01,12,15,08,6.90
2018,01,12,15,09,6.90
2018,01,12,15,10,6.90
2018,01,12,15,11,6.90
2018,01,12,15,12,6.90
2018,01,12,15,13,6.90
2018,01,12,15,14,6.90
2018,01,12,15,15,6.90
2018,01,12,15,16,6.90
2018,01,12,15,17,6.90
2018,01,12,15,18,6.90
2018,01,12,15,19,6.90
2018,01,12,15,20,6.90
2018,01,12,15,21,6.90
2018,01,12,15,22,6.80
2018,01,12,15,23,6.80
2018,01,12,15,24,6.80
2018,01,12,15,25,6.80
2018,01,12,15,26,6.80
2018,01,12,15,27,6.80
2018,01,12,15,28,6.80
2018,01,12,15,29,6.80
2018,01,12,15,30,6.80
2018,01,12,15,31,6.80
2018,01,12,15,32,6.90
2018,01,12,15,33,6.90
2018,01,12,15,34,6.90
2018,01,12,15,35,6.90
2018,01,12,15,36,6.90
2018,01,12,15,37,6.90
2018,01,12,15,38,6.90
2018,01,12,15,39,6.90
2018,01,12,15,40,6.90
2018,01,12,15,41,6.90
2018,01,12,15,42,6.90
2018,01,12,15,43,6.90
2018,01,12,15,44,6.90
2018,01,12,15,45,6.90
2018,01,12,15,46,6.90
2018,01,12,15,47,6.90
2018,01,12,15,48,6.90
2018,01,12,15,49,6.90
2018,01,12,15,50,6.90
2018,01,12,15,51,6.90
2018,01,12,15,52,6.90
2018,01,12,15,53,6.90
2018,01,12,15,54,6.90
2018,01,12,15,55,6.90
2018,01,12,15,56,6.90
2018,01,12,15,57,6.90
2018,01,12,15,58,6.90
2018,01,12,15,59,6.90
2018,01,12,16,00,6.90
2018,01,12,16,01,6.90
2018,01,12,16,02,6.90
2018,01,12,16,03,6.90
2018,01,12,16,04,6.90
2018,01,12,16,05,6.90
2018,01,12,16,06,6.90
2018,01,12,16,07,6.90
2018,01,12,16,08,6.90
2018,01,12,16,09,6.90
2018,01,12,16,10,6.90
2018,01,12,16,11,6.90
2018,01,12,16,12,6.90
2018,01,12,16,13,6.90
2018,01,12,16,14,6.90
2018,01,12,16,15,6.90
2018,01,12,16,16,6.90
2018,01,12,16,17,6.90
2018,01,12,16,18,7.00
2018,01,12,16,19,7.00
2018,01,12,16,20,7.00
2018,01,12,16,21,7.00
2018,01,12,16,22,7.00
2018,01,12,16,23,7.00
2018,01,12,16,24,7.00
2018,01,12,16,25,7.00
2018,01,12,16,26,7.00
2018,01,12,16,27,7.10
2018,01,12,16,28,7.10
2018,01,12,16,29,7.10
2018,01,12,16,30,7.10
2018,01,12,16,31,7.10
2018,01,12,16,32,7.10
2018,01,12,16,33,7.10
2018,01,12,16,34,7.10
2018,01,12,16,35,7.10
2018,01,12,16,36,7.10
2018,01,12,16,37,7.10
2018,01,12,16,38,7.10
2018,01,12,16,39,7.10
2018,01,12,16,40,7.10
2018,01,12,16,41,7.10
2018,01,12,16,42,7.10
2018,01,12,16,43,7.10
2018,01,12,16,44,7.10
2018,01,12,16,45,7.10
2018,01,12,16,46,7.10
2018,01,12,16,47,7.10
2018,01,12,16,48,7.10
2018,01,12,16,49,7.10
2018,01,12,16,50,7.10
2018,01,12,16,51,7.10
2018,01,12,16,52,7.10
2018,01,12,16,53,7.10
2018,01,12,16,54,7.20
2018,01,12,16,55,7.20
2018,01,12,16,56,7.20
2018,01,12,16,57,7.20
2018,01,12,16,58,7.20
2018,01,12,16,59,7.20
2018,01,12,17,00,7.20
2018,01,12,17,01,7.20
2018,01,12,17,02,7.20
2018,01,12,17,03,7.20
2018,01,12,17,04,7.20
2018,01,12,17,05,7.20
2018,01,12,17,06,7.20
2018,01,12,17,07,7.30
2018,01,12,17,08,7.30
2018,01,12,17,09,7.30
2018,01,12,17,10,7.30
2018,01,12,17,11,7.30
2018,01,12,17,12,7.30
2018,01,12,17,13,7.20
2018,01,12,17,14,7.20
2018,01,12,17,15,7.20
2018,01,12,17,16,7.30
2018,01,12,17,17,7.30
2018,01,12,17,18,7.30
2018,01,12,17,19,7.30
2018,01,12,17,20,7.30
2018,01,12,17,21,7.30
2018,01,12,17,22,7.30
2018,01,12,17,23,7.30
2018,01,12,17,24,7.30
2018,01,12,17,25,7.30
2018,01,12,17,26,7.30
2018,01,12,17,27,7.30
2018,01,12,17,28,7.30
2018,01,12,17,29,7.30
2018,01,12,17,30,7.30
2018,01,12,17,31,7.30
2018,01,12,17,32,7.30
2018,01,12,17,33,7.30
2018,01,12,17,34,7.30
2018,01,12,17,35,7.20
2018,01,12,17,36,7.20
2018,01,12,17,37,7.20
2018,01,12,17,38,7.20
2018,01,12,17,39,7.20
2018,01,12,17,40,7.30
2018,01,12,17,41,7.30
2018,01,12,17,42,7.30
2018,01,12,17,43,7.30
2018,01,12,17,44,7.30
2018,01,12,17,45,7.30
2018,01,12,17,46,7.30
2018,01,12,17,47,7.30
2018,01,12,17,48,7.30
2018,01,12,17,49,7.40
2018,01,12,17,50,7.40
2018,01,12,17,51,7.40
2018,01,12,17,52,7.40
2018,01,12,17,53,7.40
2018,01,12,17,54,7.40
2018,01,12,17,55,7.40
2018,01,12,17,56,7.40
2018,01,12,17,57,7.40
2018,01,12,17,58,7.40
2018,01,12,17,59,7.40
2018,01,12,18,00,7.40
2018,01,12,18,01,7.50
2018,01,12,18,02,7.50
2018,01,12,18,03,7.50
2018,01,12,18,04,7.50
2018,01,12,18,05,7.60
2018,01,12,18,06,7.60
2018,01,12,18,07,7.60
2018,01,12,18,08,7.60
2018,01,12,18,09,7.60
2018,01,12,18,10,7.60
2018,01,12,18,11,7.60
2018,01,12,18,12,7.70
2018,01,12,18,13,7.70
2018,01,12,18,14,7.70
2018,01,12,18,15,7.70
2018,01,12,18,16,7.70
2018,01,12,18,17,7.70
2018,01,12,18,18,7.70
2018,01,12,18,19,7.70
2018,01,12,18,20,7.70
2018,01,12,18,21,7.70
2018,01,12,18,22,7.70
2018,01,12,18,23,7.70
2018,01,12,18,24,7.80
2018,01,12,18,25,7.80
2018,01,12,18,26,7.80
2018,01,12,18,27,7.80
2018,01,12,18,28,7.90
2018,01,12,18,29,7.90
2018,01,12,18,30,7.90
2018,01,12,18,31,7.90
2018,01,12,18,32,7.90
2018,01,12,18,33,8.00
2018,01,12,18,34,8.00
2018,01,12,18,35,8.00
2018,01,12,18,36,8.00
2018,01,12,18,37,8.00
2018,01,12,18,38,8.00
2018,01,12,18,39,8.00
2018,01,12,18,40,8.00
2018,01,12,18,41,7.90
2018,01,12,18,42,7.90
2018,01,12,18,43,7.90
2018,01,12,18,44,7.90
2018,01,12,18,45,7.90
2018,01,12,18,46,7.90
2018,01,12,18,47,7.90
2018,01,12,18,48,7.90
2018,01,12,18,49,7.90
2018,01,12,18,50,7.90
2018,01,12,18,51,7.90
2018,01,12,18,52,7.90
2018,01,12,18,53,7.90
2018,01,12,18,54,7.90
2018,01,12,18,55,7.90
2018,01,12,18,56,7.90
2018,01,12,18,57,7.90
2018,01,12,18,58,7.90
2018,01,12,18,59,7.90
2018,01,12,19,00,7.90
2018,01,12,19,01,7.90
2018,01,12,19,02,8.00
2018,01,12,19,03,8.00
2018,01,12,19,04,8.00
2018,01,12,19,05,8.00
2018,01,12,19,06,8.10
2018,01,12,19,07,8.10
2018,01,12,19,08,8.20
2018,01,12,19,09,8.20
2018,01,12,19,10,8.30
2018,01,12,19,11,8.30
2018,01,12,19,12,8.30
2018,01,12,19,13,8.30
2018,01,12,19,14,8.30
2018,01,12,19,15,8.30
2018,01,12,19,16,8.40
2018,01,12,19,17,8.40
2018,01,12,19,18,8.40
2018,01,12,19,19,8.40
2018,01,12,19,20,8.40
2018,01,12,19,21,8.40
2018,01,12,19,22,8.40
2018,01,12,19,23,8.40
2018,01,12,19,24,8.40
2018,01,12,19,25,8.40
2018,01,12,19,26,8.40
2018,01,12,19,27,8.40
2018,01,12,19,28,8.50
2018,01,12,19,29,8.40
2018,01,12,19,30,8.50
2018,01,12,19,31,8.50
2018,01,12,19,32,8.50
2018,01,12,19,33,8.50
2018,01,12,19,34,8.50
2018,01,12,19,35,8.50
2018,01,12,19,36,8.50
2018,01,12,19,37,8.50
2018,01,12,19,38,8.50
2018,01,12,19,39,8.50
2018,01,12,19,40,8.50
2018,01,12,19,41,8.60
2018,01,12,19,42,8.60
2018,01,12,19,43,8.60
2018,01,12,19,44,8.60
2018,01,12,19,45,8.60
2018,01,12,19,46,8.60
2018,01,12,19,47,8.60
2018,01,12,19,48,8.60
2018,01,12,19,49,8.60
2018,01,12,19,50,8.60
2018,01,12,19,51,8.60
2018,01,12,19,52,8.60
2018,01,12,19,53,8.60
2018,01,12,19,54,8.60
2018,01,12,19,55,8.60
2018,01,12,19,56,8.60
2018,01,12,19,57,8.60
2018,01,12,19,58,8.60
2018,01,12,19,59,8.60
2018,01,12,20,00,8.60
2018,01,12,20,01,8.60
2018,01,12,20,02,8.60
2018,01,12,20,03,8.70
2018,01,12,20,04,8.70
2018,01,12,20,05,8.70
2018,01,12,20,06,8.70
2018,01,12,20,07,8.70
2018,01,12,20,08,8.70
2018,01,12,20,09,8.70
2018,01,12,20,10,8.70
2018,01,12,20,11,8.70
2018,01,12,20,12,8.70
2018,01,12,20,13,8.70
2018,01,12,20,14,8.70
2018,01,12,20,15,8.70
2018,01,12,20,16,8.70
2018,01,12,20,17,8.70
2018,01,12,20,18,8.70
2018,01,12,20,19,8.70
2018,01,12,20,20,8.70
2018,01,12,20,21,8.70
2018,01,12,20,22,8.70
2018,01,12,20,23,8.70
2018,01,12,20,24,8.70
2018,01,12,20,25,8.70
2018,01,12,20,26,8.70
2018,01,12,20,27,8.70
2018,01,12,20,28,8.70
2018,01,12,20,29,8.80
2018,01,12,20,30,8.80
2018,01,12,20,31,8.80
2018,01,12,20,32,8.80
2018,01,12,20,33,8.80
2018,01,12,20,34,8.80
2018,01,12,20,35,8.80
2018,01,12,20,36,8.80
2018,01,12,20,37,8.80
2018,01,12,20,38,8.80
2018,01,12,20,39,8.80
2018,01,12,20,40,8.80
2018,01,12,20,41,8.80
2018,01,12,20,42,8.80
2018,01,12,20,43,8.80
2018,01,12,20,44,8.80
2018,01,12,20,45,8.80
2018,01,12,20,46,8.80
2018,01,12,20,47,8.80
2018,01,12,20,48,8.80
2018,01,12,20,49,8.80
2018,01,12,20,50,8.80
2018,01,12,20,51,8.80
2018,01,12,20,52,8.80
2018,01,12,20,53,8.80
2018,01,12,20,54,8.70
2018,01,12,20,55,8.70
2018,01,12,20,56,8.70
2018,01,12,20,57,8.70
2018,01,12,20,58,8.80
2018,01,12,20,59,8.80
2018,01,12,21,00,8.80
2018,01,12,21,01,8.80
2018,01,12,21,02,8.80
2018,01,12,21,03,8.80
2018,01,12,21,04,8.80
2018,01,12,21,05,8.80
2018,01,12,21,06,8.80
2018,01,12,21,07,8.80
2018,01,12,21,08,8.80
2018,01,12,21,09,8.80
2018,01,12,21,10,8.70
2018,01,12,21,11,8.70
2018,01,12,21,12,8.70
2018,01,12,21,13,8.70
2018,01,12,21,14,8.70
2018,01,12,21,15,8.70
2018,01,12,21,16,8.70
2018,01,12,21,17,8.70
2018,01,12,21,18,8.70
2018,01,12,21,19,8.70
2018,01,12,21,20,8.70
2018,01,12,21,21,8.60
2018,01,12,21,22,8.60
2018,01,12,21,23,8.60
2018,01,12,21,24,8.60
2018,01,12,21,25,8.60
2018,01,12,21,26,8.60
2018,01,12,21,27,8.60
2018,01,12,21,28,8.60
2018,01,12,21,29,8.60
2018,01,12,21,30,8.60
2018,01,12,21,31,8.60
2018,01,12,21,32,8.60
2018,01,12,21,33,8.60
2018,01,12,21,34,8.60
2018,01,12,21,35,8.60
2018,01,12,21,36,8.60
2018,01,12,21,37,8.60
2018,01,12,21,38,8.60
2018,01,12,21,39,8.60
2018,01,12,21,40,8.60
2018,01,12,21,41,8.60
2018,01,12,21,42,8.60
2018,01,12,21,43,8.60
2018,01,12,21,44,8.60
2018,01,12,21,45,8.60
2018,01,12,21,46,8.60
2018,01,12,21,47,8.60
2018,01,12,21,48,8.60
2018,01,12,21,49,8.60
2018,01,12,21,50,8.60
2018,01,12,21,51,8.60
2018,01,12,21,52,8.60
2018,01,12,21,53,8.60
2018,01,12,21,54,8.60
2018,01,12,21,55,8.60
2018,01,12,21,56,8.60
2018,01,12,21,57,8.60
2018,01,12,21,58,8.70
2018,01,12,21,59,8.70
2018,01,12,22,00,8.70
2018,01,12,22,01,8.70
2018,01,12,22,02,8.70
2018,01,12,22,03,8.70
2018,01,12,22,04,8.70
2018,01,12,22,05,8.70
2018,01,12,22,06,8.70
2018,01,12,22,07,8.70
2018,01,12,22,08,8.70
2018,01,12,22,09,8.70
2018,01,12,22,10,8.70
2018,01,12,22,11,8.70
2018,01,12,22,12,8.70
2018,01,12,22,13,8.70
2018,01,12,22,14,8.70
2018,01,12,22,15,8.70
2018,01,12,22,16,8.70
2018,01,12,22,17,8.60
2018,01,12,22,18,8.60
2018,01,12,22,19,8.60
2018,01,12,22,20,8.50
2018,01,12,22,21,8.50
2018,01,12,22,22,8.50
2018,01,12,22,23,8.50
2018,01,12,22,24,8.40
2018,01,12,22,25,8.40
2018,01,12,22,26,8.40
2018,01,12,22,27,8.30
2018,01,12,22,28,8.30
2018,01,12,22,29,8.30
2018,01,12,22,30,8.30
2018,01,12,22,31,8.30
2018,01,12,22,32,8.30
2018,01,12,22,33,8.30
2018,01,12,22,34,8.30
2018,01,12,22,35,8.30
2018,01,12,22,36,8.30
2018,01,12,22,37,8.30
2018,01,12,22,38,8.30
2018,01,12,22,39,8.30
2018,01,12,22,40,8.30
2018,01,12,22,41,8.30
2018,01,12,22,42,8.30
2018,01,12,22,43,8.30
2018,01,12,22,44,8.30
2018,01,12,22,45,8.30
2018,01,12,22,46,8.30
2018,01,12,22,47,8.30
2018,01,12,22,48,8.30
2018,01,12,22,49,8.30
2018,01,12,22,50,8.30
2018,01,12,22,51,8.30
2018,01,12,22,52,8.30
2018,01,12,22,53,8.30